This is the latest recevied weather packets stored in our database for station/object M0JUI-1. If no packets are shown the sender has not sent any weather packets the latest 10 day(s).
| Time | Temp. | Humidity | Pressure | Rain* | Wind** | Luminosity | Snow |
|---|---|---|---|---|---|---|---|
| 1787823044 | 16.67° C | 22% | 1010.4 hPa | 8.38 mm | - | 34 W/m² | - |
| 1787822745 | 16.67° C | 22% | 1010.2 hPa | 7.87 mm | - | 33 W/m² | - |
| 1787822445 | 16.67° C | 22% | 1010.4 hPa | 8.38 mm | - | 32 W/m² | - |
| 1787822146 | 16.11° C | 22% | 1010.5 hPa | 7.87 mm | - | 29 W/m² | - |
| 1787821832 | 16.67° C | 22% | 1010.5 hPa | 7.11 mm | - | 29 W/m² | - |
| 1787821532 | 16.67° C | 21% | 1010.4 hPa | 6.35 mm | - | 27 W/m² | - |
| 1787821237 | 16.67° C | 21% | 1010.5 hPa | 5.84 mm | - | 22 W/m² | - |
| 1787820933 | 16.67° C | 21% | 1010.3 hPa | 5.08 mm | - | 14 W/m² | - |
| 1787820634 | 16.67° C | 20% | 1010.2 hPa | 4.32 mm | - | 11 W/m² | - |
| 1787820334 | 16.67° C | 20% | 1010.6 hPa | 3.56 mm | - | 9 W/m² | - |
| 1787820033 | 16.67° C | 19% | 1010.4 hPa | 2.79 mm | - | 11 W/m² | - |
| 1787819732 | 16.67° C | 18% | 1010.4 hPa | 2.03 mm | - | 11 W/m² | - |
| 1787819432 | 16.67° C | 17% | 1010.5 hPa | 1.02 mm | - | 8 W/m² | - |
| 1787819132 | 16.67° C | 16% | 1010.6 hPa | 0.76 mm | - | 6 W/m² | - |
| 1787818833 | 16.67° C | 15% | 1010.7 hPa | 0.25 mm | - | 6 W/m² | - |
| 1787818532 | 16.67° C | 14% | 1010.6 hPa | 0 mm | - | 5 W/m² | - |
| 1787818232 | 17.22° C | 14% | 1010.5 hPa | 0 mm | - | 5 W/m² | - |
| 1787817933 | 17.22° C | 14% | 1010.5 hPa | 0 mm | - | 2 W/m² | - |
| 1787817635 | 17.78° C | 15% | 1010.8 hPa | 0 mm | - | 0 W/m² | - |
| 1787817332 | 17.78° C | 16% | 1010 hPa | 0 mm | - | 6 W/m² | - |
| 1787817033 | 17.78° C | 16% | 1009.7 hPa | 0 mm | - | 7 W/m² | - |
| 1787816736 | 17.78° C | 16% | 1009.9 hPa | 0 mm | - | 8 W/m² | - |
| 1787816433 | 17.78° C | 15% | 1009.5 hPa | 0 mm | - | 13 W/m² | - |
| 1787816120 | 17.22° C | 15% | 1009.7 hPa | 0 mm | - | 12 W/m² | - |
| 1787815825 | 17.22° C | 15% | 1009.4 hPa | 0 mm | - | 14 W/m² | - |
* Rain latest hour (hover to see other rain measurements)
** Current wind speed in m/s (hover to see current wind gust speed)